FW2511 Weather Reports


time (UTC)temp
F
wind
direction
speed
knots
gust
knots
rain 1hr
in
rain 24hr
in
rain mn
in
humidity
%
barometer
mb
20260906060053 71 282 0.0 0.0 0.00 0.00 0.00 75 1012.2
20260906054553 71 282 0.0 0.0 0.00 0.00 0.00 75 1012.2
20260906053050 71 282 0.0 0.9 0.00 0.00 0.00 74 1012.4
20260906051559 71 283 0.0 0.0 0.00 0.00 0.00 74 1012.4
20260906050101 71 282 0.0 0.0 0.00 0.00 0.00 73 1012.7
20260906044551 71 282 0.0 1.7 0.00 0.00 0.00 73 1012.7
20260906043053 71 283 0.0 0.9 0.00 0.00 0.00 72 1012.7
20260906041544 71 282 0.0 0.9 0.00 0.00 0.00 71 1012.8
20260906040043 72 282 0.0 0.9 0.00 0.00 0.00 70 1013.0
20260906034605 72 283 0.0 1.7 0.00 0.00 0.00 69 1013.0
20260906033044 72 282 0.0 0.9 0.00 0.00 0.00 68 1013.2
20260906031547 72 282 0.0 0.9 0.00 0.00 0.00 68 1013.1
20260906030043 72 282 0.0 0.0 0.00 0.00 0.00 67 1013.1
20260906024542 72 282 0.0 0.0 0.00 0.00 0.00 66 1013.2
20260906023040 72 282 0.0 0.0 0.00 0.00 0.00 67 1012.8
20260906021538 72 282 0.0 0.9 0.00 0.00 0.00 66 1012.5
20260906020037 73 282 0.0 1.7 0.00 0.00 0.00 65 1012.5
20260906014536 73 282 0.0 0.9 0.00 0.00 0.00 65 1012.3
20260906013055 73 283 0.0 0.9 0.00 0.00 0.00 64 1012.3
20260906011545 73 283 0.0 0.9 0.00 0.00 0.00 65 1012.3
20260906010036 74 282 0.0 0.0 0.00 0.00 0.00 64 1012.3
20260906004538 74 282 0.0 0.9 0.00 0.00 0.00 64 1012.1
20260906003037 75 282 0.0 0.0 0.00 0.00 0.00 64 1012.1
20260906001535 75 282 0.0 0.9 0.00 0.00 0.00 64 1011.9
20260906000035 76 282 0.0 0.0 0.00 0.00 0.00 64 1011.7
20260905234534 76 282 0.0 0.9 0.00 0.00 0.00 63 1011.6
20260905233040 77 282 0.0 0.9 0.00 0.00 0.00 62 1011.5
20260905231533 77 295 0.0 2.6 0.00 0.00 0.00 62 1011.2
20260905230034 78 300 0.9 2.6 0.00 0.00 0.00 61 1011.3
20260905224530 79 294 0.9 3.5 0.00 0.00 0.00 59 1011.3
20260905223030 78 308 0.9 5.2 0.00 0.00 0.00 59 1011.0
20260905221527 78 303 1.7 3.5 0.00 0.00 0.00 59 1011.0
20260905220024 77 296 1.7 4.3 0.00 0.00 0.00 60 1011.3
20260905214523 77 286 1.7 3.5 0.00 0.00 0.00 59 1011.3
20260905213020 76 253 0.9 3.5 0.00 0.00 0.00 60 1011.5
20260905211553 76 293 1.7 3.5 0.00 0.00 0.00 59 1011.6
20260905210058 73 273 0.9 3.5 0.00 0.00 0.00 63 1012.0
20260905204554 71 232 0.0 2.6 0.00 0.00 0.00 64 1012.1
20260905203104 71 232 0.0 3.5 0.00 0.00 0.00 65 1012.4
20260905200056 72 272 1.7 4.3 0.00 0.00 0.00 63 1012.1
20260905194550 72 299 0.0 2.6 0.00 0.00 0.00 63 1011.8
20260905193048 72 277 4.3 11.3 0.00 0.00 0.00 62 1012.6
20260905190035 85 281 8.7 23.5 0.06 0.06 0.06 52 1012.0
20260905184540 94 346 0.9 3.5 0.00 0.00 0.00 36 1011.3
20260905181530 95 209 0.9 3.5 0.00 0.00 0.00 38 1011.4
20260905180028 94 348 0.9 3.5 0.00 0.00 0.00 38 1011.9
20260905174526 95 288 2.6 10.4 0.00 0.00 0.00 37 1012.3
20260905171534 94 317 4.3 8.7 0.00 0.00 0.00 39 1012.9
20260905170025 94 231 3.5 7.8 0.00 0.00 0.00 38 1013.2
20260905164519 93 263 0.0 3.5 0.00 0.00 0.00 42 1013.4
20260905161516 92 301 2.6 7.0 0.00 0.00 0.00 45 1013.7
20260905160013 91 273 1.7 4.3 0.00 0.00 0.00 46 1013.8
20260905154511 90 300 1.7 4.3 0.00 0.00 0.00 49 1013.9
20260905151504 87 273 2.6 7.0 0.00 0.00 0.00 52 1013.9
20260905150004 87 300 2.6 5.2 0.00 0.00 0.00 54 1014.0
20260905144609 86 283 1.7 6.1 0.00 0.00 0.00 56 1014.0
20260905141557 84 254 1.7 6.1 0.00 0.00 0.00 58 1014.2
20260905140057 83 281 0.9 6.1 0.00 0.00 0.00 59 1014.2
20260905134603 81 241 0.0 6.1 0.00 0.00 0.00 59 1014.1
20260905131553 79 218 0.0 2.6 0.00 0.00 0.00 60 1014.3
20260905130053 77 221 0.9 3.5 0.00 0.00 0.00 61 1014.3
20260905124552 77 221 0.9 2.6 0.00 0.00 0.00 62 1014.3
20260905121552 75 221 0.0 0.0 0.00 0.00 0.00 64 1014.2
20260905120054 74 221 0.0 0.0 0.00 0.00 0.00 65 1014.3
20260905114603 74 221 0.0 0.0 0.00 0.00 0.00 65 1014.3
20260905111621 74 221 0.0 0.0 0.00 0.00 0.00 64 1013.7
20260905110055 74 221 0.0 0.9 0.00 0.00 0.00 64 1013.3
20260905104607 75 221 0.0 0.9 0.00 0.00 0.00 64 1013.1
20260905101550 76 221 0.0 1.7 0.00 0.00 0.00 63 1012.8
20260905100044 76 221 0.9 2.6 0.00 0.00 0.00 62 1012.6
20260905094641 76 221 0.9 2.6 0.00 0.00 0.00 62 1012.6
20260905091547 76 219 0.0 0.9 0.00 0.00 0.00 63 1012.9
20260905090042 76 219 0.0 1.7 0.00 0.00 0.00 63 1012.8
20260905084555 76 220 0.0 0.0 0.00 0.00 0.00 64 1012.9
20260905081541 76 220 0.0 0.9 0.00 0.00 0.00 64 1013.1
20260905080037 76 220 0.0 0.0 0.00 0.00 0.00 64 1013.3
20260905074536 76 220 0.0 0.0 0.00 0.00 0.00 64 1013.6
20260905071542 77 220 0.0 1.7 0.00 0.00 0.00 64 1013.6
20260905070032 77 220 0.0 0.9 0.00 0.00 0.00 64 1013.7
20260905064529 78 220 0.0 0.9 0.00 0.00 0.00 64 1014.1
20260905061531 79 220 0.0 0.0 0.00 0.00 0.00 63 1014.3